Flag for U.S.A. Weather past 2 weeks in Metairie, Louisiana, U.S.A.

Now
73 °F

Passing clouds.


Feels Like: 73 °F
Forecast: 73 / 83 °F
Wind: 7 mph from Southeast

Location: New Orleans International Airport

Current Time: Apr 24, 2015 at 9:37:49 PM

Latest Report: Apr 24, 2015 at 8:53 PM


Visibility: 10 mi

Pressure: 29.85 "Hg

Humidity: 83%

Dew point: 68 °F

Location of MetairieLocation

Historic Weather in Metairie — Graph

°F

Metairie temperature yesterday

Maximum temperature yesterday: 83 °F (at 1:53 PM)
Minimum temperature yesterday: 69 °F (at 4:53 AM)
Average temperature yesterday: 76 °F

Past Weeks' High & Low Weather Summary

 TemperatureHumidityPressure
High85 °F (Apr 10, 2:53 PM)94% (Apr 14, 3:53 AM)30.11 "Hg (Apr 14, 3:53 AM)
Low60 °F (Apr 22, 5:53 AM)30% (Apr 21, 2:53 PM)29.74 "Hg (Apr 24, 5:59 PM)
Average73 °F78%29.97 "Hg
* Reported Apr 9 7:53 PM — Apr 24 7:53 PM, Metairie, Weather by CustomWeather, © 2015

Note: Actual official high and low records may vary slightly from our data, if they occured in-between our weather recording intervals... More about our weather records

Advertising

Metairie weather history for previous 24 hours

 ConditionsComfort  
Time TempWeatherWind HumidityBarometerVisibility
7:53 PM
Fri, Apr 24
73 °FMostly cloudy.7 mph81%29.85 "Hg10 mi
6:03 PM76 °FThunderstorms. Mostly cloudy.25 mph85%29.83 "Hg5 mi
5:59 PM76 °FThunderstorms. Fog.37 mph88%29.74 "Hg6 mi
4:53 PM79 °FMostly cloudy.10 mph74%29.90 "Hg10 mi
3:53 PM81 °FMostly cloudy.7 mph72%29.91 "Hg10 mi
2:53 PM80 °FMostly cloudy.12 mph74%29.91 "Hg10 mi
1:53 PM81 °FMostly cloudy.12 mph72%29.91 "Hg10 mi
12:53 PM80 °FMore clouds than sun.12 mph71%29.93 "Hg10 mi
11:53 AM78 °FOvercast.9 mph76%29.99 "Hg10 mi
10:53 AM77 °FOvercast.9 mph77%29.99 "Hg10 mi
9:53 AM77 °FMostly cloudy.10 mph74%30.00 "Hg10 mi
8:53 AM75 °FOvercast.9 mph76%29.98 "Hg10 mi
7:53 AM72 °FMore clouds than sun.6 mph81%29.97 "Hg9 mi
6:53 AM71 °FMostly cloudy.9 mph81%29.97 "Hg10 mi
5:53 AM72 °FOvercast.7 mph81%29.96 "Hg10 mi
4:53 AM72 °FPassing clouds.6 mph84%29.94 "Hg10 mi
3:53 AM73 °FPassing clouds.7 mph84%29.92 "Hg10 mi
2:53 AM74 °FPassing clouds.6 mph88%29.93 "Hg10 mi
2:03 AM74 °FPassing clouds.6 mph88%29.92 "Hg10 mi
1:53 AM74 °FPassing clouds.7 mph91%29.93 "Hg10 mi
12:53 AM74 °FPassing clouds.5 mph88%29.96 "Hg10 mi
11:53 PM
Thu, Apr 23
74 °FPassing clouds.6 mph88%29.96 "Hg10 mi
10:53 PM75 °FPassing clouds.3 mph85%29.95 "Hg10 mi
9:53 PM76 °FPassing clouds.5 mph82%29.94 "Hg10 mi
Weather by CustomWeather, © 2015

See weather overviewHow to use our weather pages